Имя пользователя
Упорядочить по
Порядок
Аватар - Имя пользователяНастроениеДата регистрацииПоследний визитСообщенияЛСВеб-сайт
 RichardSar2017-01-22Сегодня в 4:52 pm0Отправить личное сообщение
 Petercaf2017-01-21Вчера в 3:08 am0Отправить личное сообщение
 remontseweurodrive2012-04-24Пт Янв 20, 2017 8:23 am5Отправить личное сообщение
 Alekcensl2017-01-19Чт Янв 19, 2017 9:40 pm0Отправить личное сообщение
 Matthewutemi2017-01-16Чт Янв 19, 2017 5:32 pm0Отправить личное сообщение
 Alekcevsl2017-01-19Чт Янв 19, 2017 3:12 pm0Отправить личное сообщение
 Alekceusl2017-01-18Ср Янв 18, 2017 6:06 pm0Отправить личное сообщение
 GenyaPULiS2017-01-18Ср Янв 18, 2017 5:40 pm0Отправить личное сообщение
 RodneyMem2017-01-18Ср Янв 18, 2017 4:33 pm0Отправить личное сообщение
 Danfosssl2017-01-16Пн Янв 16, 2017 12:04 pm0Отправить личное сообщение
 eapedSet2017-01-02Вс Янв 15, 2017 6:24 pm0Отправить личное сообщение
 Phillipsl2017-01-15Вс Янв 15, 2017 4:01 pm0Отправить личное сообщение
 SherriPow2017-01-14Сб Янв 14, 2017 9:21 pm0Отправить личное сообщение
 Viagprutt2017-01-14Сб Янв 14, 2017 1:07 pm0Отправить личное сообщение
 WilfredWaili2017-01-11Чт Янв 12, 2017 8:42 am0Отправить личное сообщение
 WilliamBen2017-01-12Чт Янв 12, 2017 6:58 am0Отправить личное сообщение
 RogerIdemn2017-01-12Чт Янв 12, 2017 4:29 am0Отправить личное сообщение
 DmitriyBek2017-01-09Чт Янв 12, 2017 3:41 am0Отправить личное сообщение
 Jamesjed2017-01-11Ср Янв 11, 2017 11:02 am0Отправить личное сообщение
 Jamesgerse2017-01-11Ср Янв 11, 2017 4:16 am0Отправить личное сообщение
 jeodidefochep2017-01-11Ср Янв 11, 2017 2:00 am0Отправить личное сообщение
 MichaelTex2017-01-08Вт Янв 10, 2017 7:50 pm0Отправить личное сообщение
 remontschneider2012-12-04Вт Янв 10, 2017 9:48 am5Отправить личное сообщение
 Semendaync2017-01-09Пн Янв 09, 2017 10:36 am0Отправить личное сообщение
 Popovi4cew2017-01-08Вс Янв 08, 2017 6:13 am0Отправить личное сообщение
 ArtemPag2017-01-07Сб Янв 07, 2017 4:03 pm0Отправить личное сообщение
 KellySmePt2017-01-07Сб Янв 07, 2017 4:02 am0Отправить личное сообщение
 Lenakt2017-01-06Сб Янв 07, 2017 2:07 am0Отправить личное сообщение
 RomanJam2017-01-06Пт Янв 06, 2017 12:40 pm0Отправить личное сообщение
 Серегакgon2017-01-05Чт Янв 05, 2017 7:44 pm1Отправить личное сообщение
 RaisaFam2017-01-03Вт Янв 03, 2017 12:26 pm0Отправить личное сообщение
 autocraol2017-01-02Пн Янв 02, 2017 2:35 pm0Отправить личное сообщение
 StepzenDew2016-12-31Сб Дек 31, 2016 7:04 am0Отправить личное сообщение
 DimaBek2016-12-28Чт Дек 29, 2016 12:37 pm0Отправить личное сообщение
 remontsiemens2013-08-06Чт Дек 29, 2016 10:24 am23Отправить личное сообщение
 realmans1552016-12-28Ср Дек 28, 2016 9:14 pm0Отправить личное сообщение
 Dimasect2016-12-22Чт Дек 22, 2016 10:36 am0Отправить личное сообщение
 AltonTalry2016-12-21Ср Дек 21, 2016 1:11 am0Отправить личное сообщение
 Elenasect2016-12-19Вт Дек 20, 2016 11:24 pm0Отправить личное сообщение
 hjklklll2016-12-20Вт Дек 20, 2016 1:02 am0Отправить личное сообщение
 remontpromel2014-03-11Пн Дек 19, 2016 5:04 pm14Отправить личное сообщение
 tapedSet2016-12-10Пн Дек 12, 2016 5:13 pm0Отправить личное сообщение
 Denissarors2016-12-11Вс Дек 11, 2016 3:53 pm0Отправить личное сообщение
 RolouchA2016-12-10Сб Дек 10, 2016 11:38 pm0Отправить личное сообщение
 RolouchB2016-12-10Сб Дек 10, 2016 10:38 pm0Отправить личное сообщение
 MargoImany2016-12-07Ср Дек 07, 2016 7:17 pm0Отправить личное сообщение
 Rickyvaf2016-12-06Вт Дек 06, 2016 2:58 pm0Отправить личное сообщение
 remontgefran2013-12-02Пн Дек 05, 2016 2:06 pm5Отправить личное сообщение
 DonaldElaph2016-12-01Чт Дек 01, 2016 1:02 pm0Отправить личное сообщение
 AzizangelOmicy2016-11-30Ср Ноя 30, 2016 10:00 pm0Отправить личное сообщение